Weather in Kashkarantsy

Russia / Murmansk Oblast     66°20′22″N   36°00′36″E
temp.,
°C
wind,
m/s
gust,
m/s
humid.,
%
clouds,
%
prec.,
mm/h
press.,
hPa
HPBL,
m
18 may, tue
tue1800:00+4ese688933 0.0 101575
03:00+4e798988 0.0 101577
06:00+4ese799097 0.0 101470
09:00+5ese7109398 0.0 101377
12:00+5e81092100 0.0 101272
15:00+6ese7989100 0.1 101062
18:00+6ese4498100 2.4 100816
21:00+7se55100100 8.2 100628
19 may, wed
wed1900:00+5sse33100100 0.2 100723
03:00+4ssw11100100 0.5 100711
06:00+5ese22100100 0.1 100711
09:00+5se33100100 0.2 100815
12:00+5ese54100100 0.1 100927
15:00+5ese44100100 0.1 100924
18:00+6e5510099 0.0 100724
21:00+5e7910099 0.1 100565
20 may, thu
thu2000:00+7s6788100 0.6 100553
03:00+6s71297100 1.5 100487
06:00+6s712959 0.0 100484
09:00+5s689853 0.0 100564
12:00+6s69100100 0.0 100464
15:00+6s669968 0.1 100341
18:00+6s449767 0.0 100331
21:00+6n009512 0.0 100311
21 may, fri
fri2100:00+6nne2298100 0.0 100310
03:00+7ne559240 0.1 100117
06:00+5ese57100100 0.0 100054
09:00+4e5599100 0.0 100037
12:00+4ese5599100 0.1 99936
15:00+6e68100100 0.3 99648
18:00+5se6810087 0.4 99446
21:00+5ssw10179410 0.4 994161
22 may, sat
sat2200:00+4sw101690100 0.0 996252
03:00+4sw9148778 0.0 996229
06:00+4sw101584100 0.1 996372
09:00+3sw131885100 0.2 996633
12:00+3sw152086100 0.1 998756
15:00+4w12178496 0.3 1001483
18:00+3w11158333 0.1 1006291
21:00+3wnw57825 0.1 100873